Hourly Weather Yerevan

Today, 3 July, Friday

Time Temperature Precipitation Wind Pressure Humidity
00:00 +22°C° 0 mm 1 mps 691 mmHg 61%
01:00 +21°C° 0 mm 1 mps 691 mmHg 63%
02:00 +21°C° 0 mm 1 mps 690 mmHg 65%
03:00 +20°C° 0 mm 1 mps 690 mmHg 66%
04:00 +21°C° 0 mm 1 mps 690 mmHg 64%
05:00 +21°C° 0 mm 1 mps 691 mmHg 62%
06:00 +22°C° 0 mm 1 mps 691 mmHg 60%
07:00 +24°C° 0 mm 1 mps 691 mmHg 55%
08:00 +25°C° 0 mm 1 mps 691 mmHg 49%
09:00 +27°C° 0 mm 1 mps 691 mmHg 44%
10:00 +28°C° 0 mm 1 mps 691 mmHg 41%
11:00 +30°C° 0 mm 1 mps 691 mmHg 37%
12:00 +31°C° 0 mm 1 mps 692 mmHg 34%
13:00 +32°C° 0 mm 1 mps 691 mmHg 32%
14:00 +33°C° 0 mm 1 mps 691 mmHg 30%
15:00 +33°C° 0 mm 1 mps 691 mmHg 28%
16:00 +34°C° 0.1 mm 2 mps 691 mmHg 30%
17:00 +32°C° 0.1 mm 2 mps 691 mmHg 33%
18:00 +33°C° 0.1 mm 3 mps 691 mmHg 35%
19:00 +30°C° 0 mm 3 mps 691 mmHg 40%
20:00 +28°C° 0 mm 3 mps 691 mmHg 45%
21:00 +26°C° 0 mm 3 mps 691 mmHg 50%
22:00 +25°C° 0 mm 2 mps 691 mmHg 52%
23:00 +24°C° 0 mm 2 mps 691 mmHg 54%

Tomorrow, 4 July, Saturday

Time Temperature Precipitation Wind Pressure Humidity
00:00 +24°C° 0 mm 1 mps 691 mmHg 55%
01:00 +23°C° 0 mm 2 mps 690 mmHg 57%
02:00 +23°C° 0 mm 2 mps 690 mmHg 60%
03:00 +21°C° 0 mm 2 mps 690 mmHg 62%
04:00 +21°C° 0 mm 2 mps 690 mmHg 61%
05:00 +23°C° 0 mm 2 mps 690 mmHg 60%
06:00 +23°C° 0 mm 1 mps 691 mmHg 59%
07:00 +25°C° 0 mm 1 mps 691 mmHg 53%
08:00 +27°C° 0 mm 1 mps 691 mmHg 48%
09:00 +29°C° 0 mm 1 mps 691 mmHg 42%
10:00 +30°C° 0 mm 1 mps 691 mmHg 39%
11:00 +32°C° 0 mm 1 mps 691 mmHg 35%
12:00 +33°C° 0 mm 1 mps 691 mmHg 32%
13:00 +35°C° 0 mm 2 mps 690 mmHg 29%
14:00 +36°C° 0 mm 2 mps 690 mmHg 27%
15:00 +36°C° 0 mm 2 mps 690 mmHg 25%
16:00 +35°C° 0.1 mm 2 mps 690 mmHg 29%
17:00 +32°C° 0.1 mm 2 mps 690 mmHg 32%
18:00 +31°C° 0.1 mm 2 mps 690 mmHg 36%
19:00 +29°C° 0.3 mm 3 mps 690 mmHg 43%
20:00 +27°C° 0.3 mm 3 mps 690 mmHg 50%
21:00 +25°C° 0.3 mm 3 mps 690 mmHg 58%
22:00 +24°C° 0.2 mm 3 mps 690 mmHg 59%
23:00 +24°C° 0.2 mm 2 mps 690 mmHg 61%

Day after tomorrow, 5 July, Sunday

Time Temperature Precipitation Wind Pressure Humidity
00:00 +23°C° 0.2 mm 2 mps 690 mmHg 62%
01:00 +23°C° 0.1 mm 1 mps 689 mmHg 64%
02:00 +22°C° 0.1 mm 1 mps 689 mmHg 66%
03:00 +21°C° 0.1 mm 1 mps 688 mmHg 68%
04:00 +22°C° 0.2 mm 1 mps 689 mmHg 67%
05:00 +22°C° 0.2 mm 1 mps 689 mmHg 65%
06:00 +23°C° 0.2 mm 1 mps 689 mmHg 64%
07:00 +25°C° 0.1 mm 1 mps 689 mmHg 58%
08:00 +26°C° 0.1 mm 1 mps 689 mmHg 52%
09:00 +28°C° 0.1 mm 1 mps 689 mmHg 46%
10:00 +29°C° 0.1 mm 1 mps 689 mmHg 42%
11:00 +31°C° 0.1 mm 1 mps 689 mmHg 37%
12:00 +32°C° 0.1 mm 1 mps 688 mmHg 33%
13:00 +34°C° 0 mm 2 mps 688 mmHg 31%
14:00 +35°C° 0 mm 2 mps 688 mmHg 29%
15:00 +36°C° 0 mm 3 mps 688 mmHg 27%
16:00 +35°C° 0 mm 4 mps 688 mmHg 30%
17:00 +34°C° 0 mm 4 mps 688 mmHg 32%
18:00 +33°C° 0 mm 5 mps 688 mmHg 34%
19:00 +30°C° 0.6 mm 4 mps 688 mmHg 42%
20:00 +27°C° 0.6 mm 3 mps 688 mmHg 50%
21:00 +25°C° 0.6 mm 3 mps 688 mmHg 58%
22:00 +25°C° 0.3 mm 2 mps 688 mmHg 60%
23:00 +24°C° 0.3 mm 2 mps 688 mmHg 62%

6 July, Monday

Time Temperature Precipitation Wind Pressure Humidity
00:00 +24°C° 0.3 mm 1 mps 688 mmHg 64%
01:00 +23°C° 0 mm 1 mps 688 mmHg 64%
02:00 +22°C° 0 mm 1 mps 687 mmHg 65%
03:00 +22°C° 0 mm 1 mps 687 mmHg 65%
04:00 +22°C° 0 mm 1 mps 687 mmHg 64%
05:00 +23°C° 0 mm 1 mps 688 mmHg 62%
06:00 +23°C° 0 mm 1 mps 688 mmHg 60%
07:00 +25°C° 0 mm 1 mps 688 mmHg 54%
08:00 +27°C° 0 mm 1 mps 688 mmHg 47%
09:00 +28°C° 0 mm 1 mps 688 mmHg 41%
10:00 +30°C° 0 mm 1 mps 688 mmHg 38%
11:00 +31°C° 0 mm 1 mps 688 mmHg 34%
12:00 +33°C° 0 mm 1 mps 688 mmHg 30%
13:00 +34°C° 0 mm 2 mps 688 mmHg 29%
14:00 +35°C° 0 mm 2 mps 688 mmHg 27%
15:00 +36°C° 0 mm 3 mps 688 mmHg 26%
16:00 +35°C° 0 mm 3 mps 688 mmHg 27%
17:00 +35°C° 0 mm 4 mps 688 mmHg 29%
18:00 +34°C° 0 mm 4 mps 688 mmHg 31%
19:00 +32°C° 0 mm 4 mps 688 mmHg 35%
20:00 +29°C° 0 mm 3 mps 688 mmHg 40%
21:00 +27°C° 0 mm 3 mps 688 mmHg 44%
22:00 +26°C° 0 mm 2 mps 688 mmHg 46%
23:00 +25°C° 0 mm 2 mps 688 mmHg 48%

7 July, Tuesday

Time Temperature Precipitation Wind Pressure Humidity
00:00 +24°C° 0 mm 1 mps 687 mmHg 50%
01:00 +24°C° 0 mm 1 mps 687 mmHg 51%
02:00 +23°C° 0 mm 1 mps 687 mmHg 53%
03:00 +22°C° 0 mm 1 mps 687 mmHg 54%
04:00 +23°C° 0 mm 1 mps 687 mmHg 53%
05:00 +24°C° 0 mm 1 mps 687 mmHg 53%
06:00 +24°C° 0 mm 1 mps 688 mmHg 52%
07:00 +26°C° 0 mm 1 mps 688 mmHg 46%
08:00 +28°C° 0 mm 1 mps 688 mmHg 41%
09:00 +29°C° 0 mm 1 mps 688 mmHg 36%
10:00 +31°C° 0 mm 1 mps 688 mmHg 33%
11:00 +32°C° 0 mm 2 mps 688 mmHg 30%
12:00 +34°C° 0 mm 2 mps 688 mmHg 27%
13:00 +35°C° 0 mm 2 mps 688 mmHg 25%
14:00 +36°C° 0 mm 2 mps 688 mmHg 24%
15:00 +37°C° 0 mm 2 mps 687 mmHg 22%
16:00 +36°C° 0 mm 2 mps 687 mmHg 23%
17:00 +36°C° 0 mm 2 mps 687 mmHg 24%
18:00 +36°C° 0 mm 2 mps 687 mmHg 25%
19:00 +33°C° 0 mm 3 mps 687 mmHg 30%
20:00 +30°C° 0 mm 3 mps 687 mmHg 35%
21:00 +28°C° 0 mm 3 mps 687 mmHg 40%
22:00 +27°C° 0 mm 2 mps 687 mmHg 42%
23:00 +26°C° 0 mm 2 mps 687 mmHg 43%

8 July, Wednesday

Time Temperature Precipitation Wind Pressure Humidity
00:00 +25°C° 0 mm 1 mps 686 mmHg 45%
01:00 +25°C° 0 mm 1 mps 686 mmHg 47%
02:00 +24°C° 0 mm 1 mps 686 mmHg 48%
03:00 +24°C° 0 mm 1 mps 686 mmHg 50%
04:00 +24°C° 0 mm 1 mps 686 mmHg 50%
05:00 +25°C° 0 mm 1 mps 686 mmHg 50%
06:00 +26°C° 0 mm 1 mps 686 mmHg 49%
07:00 +28°C° 0 mm 1 mps 686 mmHg 44%
08:00 +30°C° 0 mm 1 mps 686 mmHg 38%
09:00 +31°C° 0 mm 1 mps 686 mmHg 33%
10:00 +33°C° 0 mm 1 mps 686 mmHg 30%
11:00 +34°C° 0 mm 1 mps 686 mmHg 27%
12:00 +36°C° 0 mm 1 mps 686 mmHg 24%
13:00 +37°C° 0 mm 2 mps 686 mmHg 24%
14:00 +37°C° 0 mm 3 mps 685 mmHg 24%
15:00 +38°C° 0 mm 4 mps 685 mmHg 24%
16:00 +37°C° 0 mm 4 mps 685 mmHg 24%
17:00 +36°C° 0 mm 3 mps 685 mmHg 25%
18:00 +36°C° 0 mm 3 mps 685 mmHg 26%
19:00 +34°C° 0 mm 4 mps 686 mmHg 31%
20:00 +30°C° 0 mm 5 mps 686 mmHg 36%
21:00 +28°C° 0 mm 6 mps 686 mmHg 41%
22:00 +27°C° 0.3 mm 5 mps 686 mmHg 47%
23:00 +25°C° 0.3 mm 4 mps 685 mmHg 53%
Show more